Overview Statistics Trail Chart Weather Telemetry Raw packets
 

This is the latest recevied weather packets stored in our database for station/object KD7AWQ. If no packets are shown the sender has not sent any weather packets the latest 10 day(s).

<< 30 31 32 33 34 35 36 >>
Time Temp. Humidity Pressure Rain* Wind** Luminosity Snow
1788230508 22.78° C 48% 1187.8 hPa 0 mm - 0 W/m² -
1788230206 22.78° C 47% 1187.3 hPa 0 mm - 0 W/m² -
1788229902 22.78° C 47% 1187.5 hPa 0 mm - 0 W/m² -
1788229596 22.78° C 47% 1187.5 hPa 0 mm - 0 W/m² -
1788229292 22.78° C 47% 1187.4 hPa 0 mm - 0 W/m² -
1788228987 22.78° C 47% 1187.8 hPa 0 mm - 0 W/m² -
1788228682 22.78° C 47% 1187.7 hPa 0 mm - 0 W/m² -
1788228378 22.78° C 45% 1187.3 hPa 0 mm - 0 W/m² -
1788228073 22.78° C 47% 1187.5 hPa 0 mm - 0 W/m² -
1788227769 22.78° C 49% 1187.4 hPa 0 mm - 1 W/m² -
1788227468 22.78° C 49% 1187.3 hPa 0 mm - 1 W/m² -
1788227163 22.78° C 49% 1187.3 hPa 0 mm - 3 W/m² -
1788226859 22.78° C 49% 1187.4 hPa 0 mm - 5 W/m² -
1788226555 22.78° C 49% 1187.2 hPa 0 mm - 9 W/m² -
1788226251 22.78° C 50% 1187.1 hPa 0 mm - 14 W/m² -
1788225950 22.78° C 50% 1187.1 hPa 0 mm - 21 W/m² -
1788225645 23.33° C 49% 1187.2 hPa 0 mm - 29 W/m² -
1788225342 23.33° C 48% 1187 hPa 0 mm - 41 W/m² -
1788225039 23.33° C 48% 1187 hPa 0 mm - 54 W/m² -
1788224735 23.33° C 48% 1187 hPa 0 mm - 66 W/m² -
1788224434 23.33° C 48% 1186.7 hPa 0 mm - 71 W/m² -
1788224129 23.33° C 48% 1186.7 hPa 0 mm - 89 W/m² -
1788223824 23.33° C 48% 1187 hPa 0 mm - 114 W/m² -
1788223523 23.33° C 48% 1187 hPa 0 mm - 136 W/m² -
1788223218 23.33° C 48% 1187 hPa 0 mm - 125 W/m² -

* Rain latest hour (hover to see other rain measurements)
** Current wind speed in m/s (hover to see current wind gust speed)